Regional Weather Roundup
Issued by NWS

Home | Current Version | Previous Version | Text Only | Print | Product List | Glossary Off
Versions: 1 2 3 4 5 6 7 8 9 10 11 12 13 14 15 16 17 18 19 20 21 22 23 24 25 26 27 28 29 30 31 32 33 34 35 36 37 38 39 40 41 42 43 44 45 46 47 48 49 50

029
ASUS44 KLIX 190501
RWRLA
LOUISIANA WEATHER ROUNDUP
NATIONAL WEATHER SERVICE NEW ORLEANS LA
1100 PM CST THU DEC 18 2014

NOTE: "FAIR" INDICATES FEW OR NO CLOUDS BELOW 12,000 FEET WITH NO
      SIGNIFICANT WEATHER AND/OR OBSTRUCTIONS TO VISIBILITY.
      SKY/WX - SKY CONDITION AND SIGNIFICANT WEATHER.
      TMP - AIR TEMPERATURE.    DP   - DEWPOINT TEMPERATURE.
      RH  - RELATIVE HUMIDITY.  PRES - PRESSURE.
      HX  - HEAT INDEX.         WCI  - WIND CHILL INDEX.

*  THESE STATIONS ARE NOT NWS OR FAA STATIONS AND ARE NOT UNDER
   NWS QUALITY CONTROL.

LAZ040-048-061>063-065-066-069-190600-
SOUTHEAST LOUISIANA

CITY           SKY/WX    TMP DP  RH WIND       PRES   REMARKS
N.O. AUDUBON     N/A     58  56  94 MISG        N/A
N.O. INTL ARPT LGT RAIN  58  53  84 NE8       30.15R
N.O. LAKEFRONT CLOUDY    60  54  80 E8        30.15R
N.O. DOWNTOWN* CLOUDY    57  48  72 E8        30.14S
SLIDELL        CLOUDY    57  52  83 NE6       30.15S
BATON ROUGE    CLOUDY    56  54  93 NE7       30.13F FOG
BOOTHVILLE     CLOUDY    60  58  92 NE6       30.13S
BELLE CHASSE   CLOUDY    57  55  93 NE5       30.14R
BOGALUSA*        N/A     53  50  89 NE3       30.19S
GALLIANO*      NOT AVBL
NEW ROADS*     NOT AVBL
GONZALES*      NOT AVBL
HAMMOND*       NOT AVBL
HOUMA*         LGT RAIN  58  57  97 NE7       30.13S
PORT FOURCHON* CLOUDY    64  61  88 E6        30.15S

$$

LAZ041-044-053-054-190600-
SOUTHWEST LOUISIANA

CITY           SKY/WX    TMP DP  RH WIND       PRES   REMARKS
LAKE CHARLES   CLOUDY    56  52  86 NE7       30.10S
LAFAYETTE      CLOUDY    58  53  84 NE5       30.11F
PATTERSON      CLOUDY    59  57  94 NE8       30.12F
SALT POINT       N/A     63  59  87 VRB3      30.10F
NEW IBERIA     CLOUDY    61  55  81 E7        30.11F
CHENAULT AIRPK CLOUDY    55  52  91 NE6       30.11F

$$

LAZ027-028-190600-
CENTRAL LOUISIANA

CITY           SKY/WX    TMP DP  RH WIND       PRES   REMARKS
FORT POLK      CLOUDY    52  50  95 NE8       30.12S
ALEXANDRIA INT CLOUDY    51  50  96 NE5       30.14R FOG
ALEXANDRIA     CLOUDY    52  49  89 VRB5      30.16R

$$

LAZ001-002-190600-
NORTHWEST LOUISIANA

CITY           SKY/WX    TMP DP  RH WIND       PRES   REMARKS
SHREVEPORT     CLOUDY    51  47  86 NE10      30.16S
BARKSDALE AFB  NOT AVBL
DTN SHREVEPORT CLOUDY    50  46  86 NE6       30.18S

$$

LAZ014-016-190600-
NORTHEAST LOUISIANA

CITY           SKY/WX    TMP DP  RH WIND       PRES   REMARKS
MONROE         CLOUDY    48  46  93 NE7       30.20R
TALLULAH       CLOUDY    49  45  86 CALM      30.19S

$$




USA.gov is the U.S. government's official web portal to all federal, state and local government web resources and services.